Flag for Norway Weather past 2 weeks in Halden, Norway

Now
58 °F

Cool.


Feels Like: 57 °F
Forecast: 49 / 63 °F
Wind: 6 mph from Northeast

Location: Stromtangen Fyr

Current Time: Jul 31, 2015 at 9:29:41 AM

Latest Report: Jul 31, 2015 at 8:00 AM


Visibility: N/A

Pressure: 29.68 "Hg

Humidity: 81%

Dew point: 52 °F

Location of HaldenLocation

Historic Weather in Halden — Graph

°F

Halden temperature yesterday

Maximum temperature yesterday: 67 °F (at 4:00 PM)
Minimum temperature yesterday: 55 °F (at 6:00 AM)
Average temperature yesterday: 61 °F

Past Weeks' High & Low Weather Summary

 TemperatureHumidityPressure
High67 °F (Jul 30, 4:00 PM)96% (Jul 18, 5:00 AM)30.06 "Hg (Jul 18, 5:00 AM)
Low52 °F (Jul 26, 5:00 AM)43% (Jul 16, 2:00 PM)29.35 "Hg (Jul 26, 12:00 PM)
Average59 °F77%29.64 "Hg
* Reported Jul 16 8:00 AM — Jul 31 8:00 AM, Halden, Weather by CustomWeather, © 2015

Note: Actual official high and low records may vary slightly from our data, if they occured in-between our weather recording intervals... More about our weather records

Advertising

Halden weather history for previous 24 hours

 ConditionsComfort  
Time TempWeatherWind HumidityBarometerVisibility
8:00 AM
Fri, Jul 31
58 °FCool.6 mph81%29.68 "HgN/A
7:00 AM57 °FCool.5 mph85%29.66 "HgN/A
6:00 AM58 °FCool.5 mph85%29.65 "HgN/A
4:00 AM60 °FCool.2 mph83%29.63 "HgN/A
3:00 AM61 °FCool.5 mph82%29.62 "HgN/A
2:00 AM61 °FCool.3 mph84%29.62 "HgN/A
1:00 AM61 °FCool.5 mph92%29.61 "HgN/A
12:00 AM61 °FCool.1 mph91%29.59 "HgN/A
10:00 PM
Thu, Jul 30
62 °FCool.3 mph88%29.59 "HgN/A
9:00 PM63 °FMild.3 mph86%29.59 "HgN/A
8:00 PM63 °FMild.3 mph85%29.58 "HgN/A
7:00 PM63 °FMild.7 mph87%29.56 "HgN/A
6:00 PM63 °FMild.8 mph82%29.56 "HgN/A
5:00 PM64 °FMild.12 mph78%29.55 "HgN/A
4:00 PM67 °FMild.5 mph66%29.54 "HgN/A
3:00 PM67 °FMild.6 mph67%29.54 "HgN/A
2:00 PM66 °FMild.7 mph69%29.50 "HgN/A
1:00 PM64 °FMild.7 mph73%29.50 "HgN/A
12:00 PM65 °FMild.6 mph68%29.50 "HgN/A
11:00 AM63 °FMild.6 mph71%29.50 "HgN/A
10:00 AM62 °FCool.5 mph75%29.50 "HgN/A
9:00 AM60 °FCool.5 mph82%29.47 "HgN/A
Weather by CustomWeather, © 2015

See weather overviewHow to use our weather pages